This is the latest recevied weather packets stored in our database for station/object K2CCS. If no packets are shown the sender has not sent any weather packets the latest 10 day(s).
| Time | Temp. | Humidity | Pressure | Rain* | Wind** | Luminosity | Snow |
|---|---|---|---|---|---|---|---|
| 1777536731 | 8.89° C | 99% | 1010.8 hPa | 1.27 mm | - | 0 W/m² | - |
| 1777536428 | 8.89° C | 99% | 1011.1 hPa | 1.27 mm | - | 0 W/m² | - |
| 1777536124 | 8.89° C | 99% | 1011 hPa | 0 mm | - | 0 W/m² | - |
| 1777535820 | 8.89° C | 99% | 1011 hPa | 1.78 mm | - | 0 W/m² | - |
| 1777535517 | 8.89° C | 99% | 1011.1 hPa | 1.78 mm | - | 0 W/m² | - |
| 1777535214 | 8.89° C | 99% | 1011 hPa | 0 mm | - | 0 W/m² | - |
| 1777534910 | 8.89° C | 99% | 1011.1 hPa | 1.27 mm | - | 0 W/m² | - |
| 1777534608 | 8.89° C | 99% | 1011 hPa | 1.27 mm | - | 0 W/m² | - |
| 1777534305 | 8.89° C | 99% | 1011 hPa | 0 mm | - | 0 W/m² | - |
| 1777534003 | 8.89° C | 99% | 1011 hPa | 0 mm | - | 0 W/m² | - |
| 1777533699 | 8.89° C | 99% | 1011 hPa | 1.78 mm | - | 0 W/m² | - |
| 1777533396 | 8.89° C | 99% | 1011.1 hPa | 1.78 mm | - | 0 W/m² | - |
| 1777533092 | 8.89° C | 99% | 1011.1 hPa | 0 mm | - | 0 W/m² | - |
| 1777532790 | 8.89° C | 99% | 1011.1 hPa | 0 mm | - | 0 W/m² | - |
| 1777532485 | 8.89° C | 99% | 1011.1 hPa | 0 mm | - | 0 W/m² | - |
| 1777532182 | 8.89° C | 99% | 1011.1 hPa | 0 mm | - | 0 W/m² | - |
| 1777531879 | 8.89° C | 99% | 1011.3 hPa | 1.78 mm | - | 0 W/m² | - |
| 1777531575 | 8.89° C | 99% | 1011.2 hPa | 1.78 mm | - | 0 W/m² | - |
| 1777531272 | 9.44° C | 99% | 1011.2 hPa | 1.27 mm | - | 0 W/m² | - |
| 1777530970 | 9.44° C | 99% | 1011.3 hPa | 3.05 mm | - | 0 W/m² | - |
| 1777530667 | 9.44° C | 99% | 1011.3 hPa | 4.32 mm | - | 0 W/m² | - |
| 1777530364 | 9.44° C | 99% | 1011.1 hPa | 7.87 mm | - | 0 W/m² | - |
| 1777530060 | 9.44° C | 99% | 1011.1 hPa | 4.32 mm | - | 0 W/m² | - |
| 1777529757 | 9.44° C | 99% | 1011.2 hPa | 4.32 mm | - | 0 W/m² | - |
| 1777529453 | 9.44° C | 99% | 1011.1 hPa | 6.1 mm | - | 0 W/m² | - |
* Rain latest hour (hover to see other rain measurements)
** Current wind speed in m/s (hover to see current wind gust speed)